Terminal Aerodrome Forecast
Issued by NWS Sioux Falls, SD

Home | Current Version | Previous Version | Graphics & Text | Print | Product List | Glossary On
Versions: 1 2 3 4 5 6 7 8 9 10 11 12 13 14 15 16 17 18 19 20 21 22 23 24 25 26 27 28 29 30 31 32 33 34 35 36 37 38 39 40 41 42 43 44 45 46 47 48 49 50
000
FTUS43 KFSD 230216 AAA
TAFSUX
TAF AMD
KSUX 230216Z 2302/2324 12008KT P6SM OVC080
      TEMPO 2302/2305 -SHRA OVC050
     FM230500 11008KT P6SM VCSH BKN035
     FM231200 13010KT P6SM OVC025
     FM232000 14014KT P6SM OVC020
      TEMPO 2320/2324 5SM -SHRA OVC025=

USA.gov is the U.S. government's official web portal to all federal, state and local government web resources and services.